Miscellaneous Local Product
Issued by NWS Hastings, NE

Home | Current Version | Previous Version | Graphics & Text | Print | Product List | Glossary On
Versions: 1 2 3 4 5 6 7 8 9 10 11 12 13 14 15 16 17 18 19 20 21 22 23 24 25 26 27 28 29 30 31 32 33 34 35 36 37 38 39 40 41 42 43 44 45 46 47 48 49 50
184
AXUS43 KGID 280102
MISGRI

GID CWA HOURLY WEATHER ROUNDUP
NATIONAL WEATHER SERVICE HASTINGS NE
800 PM CDT WED APR 27 2016

NOTE: "FAIR" INDICATES FEW OR NO CLOUDS BELOW 12,000 FEET WITH NO
SIGNIFICANT WEATHER AND/OR OBSTRUCTIONS TO VISIBILITY.

...SOUTH CENTRAL NEBRASKA...

CITY           SKY/WX    TMP DP  RH WIND       PRES   REMARKS
GRAND ISLAND   CLOUDY    41  38  89 NW31G39   29.60R
HASTINGS       CLOUDY    40  37  89 NW29G39   29.61R WCI  29
KEARNEY        CLOUDY    39  34  81 NW23G35   29.66R WCI  29
ORD            CLOUDY    39  37  92 NW22G32   29.65R WCI  29
YORK           MOCLDY    50  46  87 N9G17     29.52R
AURORA         CLOUDY    43  41  93 NW30      29.57R
LEXINGTON      CLOUDY    41  36  81 NW18      29.71R
HOLDREGE       LGT RAIN  40  36  85 NW21G31   29.67R WCI  30
HEBRON         CLOUDY    44  39  83 W21G28    29.61R

...NEBRASKA PANHANDLE...

CITY           SKY/WX    TMP DP  RH WIND       PRES   REMARKS
CHADRON        LGT SNOW  34  32  92 N14       29.84R FOG     WCI  25
ALLIANCE       CLOUDY    36  33  89 N20G26    29.78S WCI  25
SCOTTSBLUFF    MOCLDY    44  30  57 NW24G32   29.82R
SIDNEY         PTCLDY    43  29  57 N28G35    29.79R

...WESTERN AND NORTH CENTRAL NEBRASKA...

CITY           SKY/WX    TMP DP  RH WIND       PRES   REMARKS
VALENTINE      FLURRIES  34  31  88 N15G21    29.76R WCI  24
AINSWORTH      LGT RAIN  35  34  97 NW15      29.72S WCI  25
ONEILL         CLOUDY    43  42  95 N17G23    29.65R FOG
BROKEN BOW     CLOUDY    37  34  89 NW21G31   29.68R WCI  26
IMPERIAL       MOCLDY    46  37  71 N14       29.76R
NORTH PLATTE   CLOUDY    41  35  79 NW21G26   29.73R
MCCOOK         CLEAR     47  34  60 NW23      29.73R

...EASTERN NEBRASKA...

CITY           SKY/WX    TMP DP  RH WIND       PRES   REMARKS
NORFOLK        LGT RAIN  50  48  93 NE10      29.54S FOG
SO SIOUX CITY  CLOUDY    50  46  86 E21G30    29.55S
TEKAMAH        LGT RAIN  52  50  93 NE18      29.52S
COLUMBUS       CLOUDY    52  41  66 SW8       29.54R
ALBION         DRIZZLE   47  45  91 N14G20    29.56R
OMAHA EPPLEY   LGT RAIN  51  46  83 S10       29.52S
OFFUTT AFB     CLOUDY    51  46  84 S6        29.52S
MILLARD        DRIZZLE   51  46  83 S3        29.52R
LINCOLN        CLOUDY    47  42  83 S9        29.53S
NEBRASKA CITY  CLOUDY    48  43  82 SW15G22   29.56S
BEATRICE       CLOUDY    44  42  94 SW17G24   29.58R FOG
FALLS CITY     MOCLDY    50  40  68 SW18      29.61R

...NORTHERN KANSAS...

CITY           SKY/WX    TMP DP  RH WIND       PRES   REMARKS
GOODLAND       CLEAR     51  32  48 N15       29.75R
HILL CITY      CLEAR     51  36  56 NW13G26   29.73R
NORTON         CLEAR     48  34  57 NW16      29.71
PHILLIPSBURG   CLEAR     48  37  66 NW15G24   29.70R
SMITH CENTER   PTCLDY    45  37  76 NW16G22   29.70R
BELOIT         MOCLDY    48  37  66 NW14G21   29.67S
HAYS           CLEAR     54  34  47 NW18G24   29.72R
RUSSELL        CLEAR     54  36  50 NW25G33   29.70R
CONCORDIA      CLOUDY    47  37  68 NW21G36   29.66R
SALINA         MOCLDY    58  41  53 NW13G26   29.68R
TOPEKA         CLEAR     58  44  60 W12G20    29.65R



USA.gov is the U.S. government's official web portal to all federal, state and local government web resources and services.